Location: Titusville
(28.6120°N, 80.8080°W)
Time: 11:28:03
(UTC-04:00)

Hubble Space Telescope - Visible Passes

Search period start: 23 July 2018 00:00
Search period end: 02 August 2018 00:00
Orbit: 537 x 541 km, 28.5° (Epoch: 22 July)

Date Brightness Start Highest point End Pass type
(mag) Time Alt. Az. Time Alt. Az. Time Alt. Az.
23 Jul 1.1 04:44:00 51° SE 04:44:00 51° SE 04:47:18 10° ESE visible
24 Jul 2.3 04:34:54 26° SE 04:34:54 26° SE 04:36:53 10° ESE visible
24 Jul 2.3 06:10:51 10° WSW 06:13:43 18° SSW 06:16:35 10° SSE visible
25 Jul 3.3 04:26:01 12° SE 04:26:01 12° SE 04:26:25 10° SE visible
25 Jul 2.6 06:01:25 11° SW 06:03:17 14° SSW 06:05:31 10° S visible
25 Jul 3.0 21:26:10 10° S 21:26:31 11° S 21:26:31 11° S visible
26 Jul 2.8 05:52:42 11° SSW 05:52:50 11° SSW 05:53:50 10° SSW visible
26 Jul 2.4 21:14:53 10° SSW 21:17:30 16° SSE 21:17:46 16° SSE visible
27 Jul 2.2 21:03:57 10° SSW 21:07:04 21° SSE 21:08:50 16° ESE visible
27 Jul 3.4 22:43:53 10° WSW 22:44:14 12° WSW 22:44:14 12° WSW visible
28 Jul 1.9 20:53:10 10° SW 20:56:38 26° SSE 20:59:42 12° ESE visible
28 Jul 2.7 22:33:29 10° WSW 22:35:05 22° WSW 22:35:05 22° WSW visible
29 Jul 1.6 20:42:31 10° SW 20:46:13 32° SSE 20:49:56 10° E visible
29 Jul 1.8 22:23:06 10° WSW 22:25:45 38° WSW 22:25:45 38° WSW visible
30 Jul 1.0 22:12:44 10° W 22:16:15 62° WSW 22:16:15 62° WSW visible
31 Jul 0.6 22:02:24 10° W 22:06:33 87° S 22:06:36 86° SE visible
01 Aug 0.6 21:52:03 10° W 21:56:13 89° SSE 21:56:51 63° E visible
